SAS251 ENCN-EKCH

Flight info

Callsign SAS251
Flight time 0h 53m
Altitude 31000
Route AMSEV DCT TESPI
Aircraft A320/M-SDE3FGHIRWY/LB1

Departure

Time 2026-04-30 18:46
Airport Kristiansand Airport (ENCN)

Arrival

Time 2026-04-30 19:40
Airport Copenhagen Kastrup Airport (EKCH)
Time Latitude Longitude Altitude Speed Heading
2026-04-30 18:32 58.20349 8.07614 50 ft 0 kts 268°
2026-04-30 18:38 58.20348 8.07627 49 ft 1 kts 279°
2026-04-30 18:38 58.20350 8.07652 49 ft 2 kts 279°
2026-04-30 18:39 58.20344 8.07677 49 ft 2 kts 314°
2026-04-30 18:39 58.20332 8.07692 49 ft 2 kts 345°
2026-04-30 18:39 58.20317 8.07693 49 ft 2 kts 16°
2026-04-30 18:39 58.20304 8.07680 49 ft 1 kts 40°
2026-04-30 18:40 58.20301 8.07676 49 ft 0 kts 38°
2026-04-30 18:41 58.20303 8.07679 49 ft 1 kts 38°
2026-04-30 18:41 58.20306 8.07683 49 ft 1 kts 38°
2026-04-30 18:41 58.20319 8.07704 49 ft 3 kts 47°
2026-04-30 18:42 58.20333 8.07746 49 ft 4 kts 60°
2026-04-30 18:42 58.20372 8.07888 49 ft 7 kts 63°
2026-04-30 18:42 58.20402 8.07980 50 ft 9 kts 55°
2026-04-30 18:45 58.21157 8.09488 58 ft 5 kts 285°
2026-04-30 18:45 58.21130 8.09444 59 ft 7 kts 185°
2026-04-30 18:45 58.21082 8.09404 59 ft 8 kts 214°
2026-04-30 18:46 58.20876 8.09137 58 ft 76 kts 214°
2026-04-30 18:46 58.20229 8.08288 50 ft 147 kts 215°
2026-04-30 18:46 58.19337 8.07094 570 ft 160 kts 215°
2026-04-30 18:46 58.18395 8.06010 1364 ft 162 kts 206°
2026-04-30 18:47 58.17326 8.05383 2124 ft 168 kts 199°
2026-04-30 18:47 58.16187 8.04745 2649 ft 182 kts 201°
2026-04-30 18:47 58.14927 8.03954 3184 ft 199 kts 202°
2026-04-30 18:47 58.13569 8.03067 3642 ft 222 kts 202°
2026-04-30 18:48 58.12044 8.02057 4293 ft 239 kts 201°
2026-04-30 18:48 58.10490 8.01028 5209 ft 244 kts 201°
2026-04-30 18:48 58.08874 8.00188 6238 ft 247 kts 185°
2026-04-30 18:48 58.07211 8.00880 7170 ft 256 kts 154°
2026-04-30 18:49 58.05724 8.02918 7812 ft 274 kts 143°
2026-04-30 18:49 58.04249 8.05200 8691 ft 283 kts 143°
2026-04-30 18:49 58.02724 8.07539 9701 ft 287 kts 143°
2026-04-30 18:49 58.01173 8.09886 10597 ft 292 kts 143°
2026-04-30 18:50 57.99538 8.12330 11204 ft 310 kts 143°
2026-04-30 18:50 57.97805 8.14904 11705 ft 328 kts 143°
2026-04-30 18:50 57.95972 8.17611 12119 ft 347 kts 143°
2026-04-30 18:50 57.94009 8.20504 12596 ft 366 kts 143°
2026-04-30 18:51 57.91966 8.23505 13021 ft 383 kts 143°
2026-04-30 18:51 57.89888 8.26555 13649 ft 391 kts 143°
2026-04-30 18:51 57.87724 8.29727 14434 ft 396 kts 143°
2026-04-30 18:51 57.85537 8.32924 15170 ft 400 kts 143°
2026-04-30 18:52 57.83337 8.36133 15866 ft 405 kts 142°
2026-04-30 18:52 57.81109 8.39378 16550 ft 410 kts 142°
2026-04-30 18:52 57.78859 8.42650 17206 ft 415 kts 142°
2026-04-30 18:52 57.76588 8.46002 17830 ft 420 kts 139°
2026-04-30 18:53 57.74583 8.49920 18430 ft 425 kts 128°
2026-04-30 18:53 57.72982 8.54570 19050 ft 429 kts 116°
2026-04-30 18:53 57.71799 8.59664 19674 ft 432 kts 110°
2026-04-30 18:53 57.70704 8.64965 20280 ft 436 kts 109°
2026-04-30 18:54 57.69629 8.70212 20861 ft 440 kts 110°
2026-04-30 18:54 57.68413 8.75445 21404 ft 445 kts 118°
2026-04-30 18:54 57.66568 8.80093 21945 ft 449 kts 133°
2026-04-30 18:54 57.64144 8.83793 22500 ft 453 kts 147°
2026-04-30 18:55 57.61333 8.86325 23014 ft 457 kts 161°
2026-04-30 18:55 57.55050 8.87579 23984 ft 462 kts 188°
2026-04-30 18:55 57.51942 8.86202 24447 ft 464 kts 201°
2026-04-30 18:56 57.46050 8.81270 25355 ft 469 kts 204°
2026-04-30 18:56 57.43019 8.79150 25765 ft 473 kts 200°
2026-04-30 18:56 57.39857 8.77354 26153 ft 476 kts 197°
2026-04-30 18:57 57.33402 8.74476 27051 ft 478 kts 193°
2026-04-30 18:57 57.30187 8.73267 27592 ft 476 kts 190°
2026-04-30 18:57 57.26907 8.73063 28013 ft 477 kts 172°
2026-04-30 18:58 57.21148 8.78479 28977 ft 472 kts 135°
2026-04-30 18:58 57.18804 8.82647 29505 ft 470 kts 135°
2026-04-30 18:58 57.16432 8.86820 29950 ft 471 kts 135°
2026-04-30 18:59 57.11679 8.95103 30678 ft 473 kts 133°
2026-04-30 19:00 57.04934 9.08373 31394 ft 477 kts 131°
2026-04-30 19:00 57.02681 9.12808 31401 ft 477 kts 131°
2026-04-30 19:01 56.93590 9.30447 31410 ft 478 kts 131°
2026-04-30 19:02 56.86869 9.43342 31412 ft 442 kts 131°
2026-04-30 19:02 56.82800 9.51110 31412 ft 408 kts 131°
2026-04-30 19:03 56.79032 9.58284 31409 ft 377 kts 130°
2026-04-30 19:03 56.75547 9.64907 31412 ft 356 kts 130°
2026-04-30 19:04 56.72122 9.71405 31403 ft 354 kts 131°
2026-04-30 19:05 56.65278 9.84322 31423 ft 356 kts 131°
2026-04-30 19:06 56.58413 9.97193 31163 ft 351 kts 131°
2026-04-30 19:06 56.56714 10.00369 30651 ft 353 kts 131°
2026-04-30 19:06 56.53235 10.06870 28947 ft 374 kts 131°
2026-04-30 19:07 56.49501 10.13824 27048 ft 395 kts 131°
2026-04-30 19:07 56.47584 10.17383 26160 ft 410 kts 131°
2026-04-30 19:08 56.43486 10.24968 25413 ft 425 kts 132°
2026-04-30 19:08 56.39295 10.32693 25413 ft 439 kts 132°
2026-04-30 19:08 56.37162 10.36614 25416 ft 440 kts 132°
2026-04-30 19:09 56.32876 10.44473 25420 ft 440 kts 131°
2026-04-30 19:09 56.30706 10.48444 25422 ft 440 kts 131°
2026-04-30 19:09 56.28565 10.52356 25426 ft 440 kts 131°
2026-04-30 19:10 56.24268 10.60189 25425 ft 441 kts 131°
2026-04-30 19:10 56.19972 10.67995 25423 ft 441 kts 133°
2026-04-30 19:11 56.17820 10.71894 25417 ft 442 kts 132°
2026-04-30 19:11 56.13497 10.79706 25413 ft 441 kts 132°
2026-04-30 19:11 56.11356 10.83567 25414 ft 441 kts 132°
2026-04-30 19:12 56.09203 10.87445 25415 ft 441 kts 132°
2026-04-30 19:12 56.07044 10.91325 25418 ft 441 kts 132°
2026-04-30 19:12 56.04863 10.95237 25420 ft 441 kts 132°
2026-04-30 19:13 56.00526 11.02997 25422 ft 441 kts 132°
2026-04-30 19:13 55.96244 11.10627 25422 ft 418 kts 132°
2026-04-30 19:13 55.94253 11.14160 25421 ft 397 kts 132°
2026-04-30 19:14 55.92338 11.17555 25419 ft 380 kts 131°
2026-04-30 19:14 55.90482 11.20848 25422 ft 374 kts 131°
2026-04-30 19:14 55.88667 11.24072 25425 ft 373 kts 131°
2026-04-30 19:14 55.86819 11.27349 25428 ft 373 kts 131°
2026-04-30 19:15 55.84974 11.30614 25426 ft 373 kts 131°
2026-04-30 19:15 55.81286 11.37113 25428 ft 373 kts 131°
2026-04-30 19:15 55.79453 11.40338 25427 ft 373 kts 131°
2026-04-30 19:16 55.77814 11.43825 25408 ft 366 kts 114°
2026-04-30 19:16 55.76997 11.48055 25426 ft 357 kts 94°
2026-04-30 19:16 55.76366 11.56716 25427 ft 357 kts 92°
2026-04-30 19:17 55.76043 11.61113 25428 ft 357 kts 93°
2026-04-30 19:17 55.75360 11.69839 25433 ft 355 kts 94°
2026-04-30 19:17 55.75019 11.74072 25112 ft 352 kts 94°
2026-04-30 19:18 55.74446 11.81177 23667 ft 347 kts 94°
2026-04-30 19:18 55.73990 11.86774 22528 ft 341 kts 94°
2026-04-30 19:18 55.73653 11.90888 21561 ft 339 kts 94°
2026-04-30 19:19 55.73315 11.95010 20533 ft 339 kts 94°
2026-04-30 19:19 55.72977 11.99112 19508 ft 338 kts 94°
2026-04-30 19:19 55.72304 12.07233 17484 ft 333 kts 94°
2026-04-30 19:20 55.71970 12.11225 16499 ft 330 kts 94°
2026-04-30 19:20 55.71635 12.15220 15474 ft 327 kts 95°
2026-04-30 19:20 55.70842 12.22930 13832 ft 313 kts 109°
2026-04-30 19:21 55.69572 12.25962 13446 ft 305 kts 134°
2026-04-30 19:21 55.66338 12.30725 13400 ft 289 kts 135°
2026-04-30 19:22 55.62993 12.33811 13389 ft 282 kts 174°
2026-04-30 19:22 55.58704 12.28409 13382 ft 255 kts 264°
2026-04-30 19:23 55.59767 12.19709 12774 ft 242 kts 294°
2026-04-30 19:24 55.60895 12.14167 12188 ft 241 kts 295°
2026-04-30 19:24 55.61469 12.11377 11896 ft 239 kts 295°
2026-04-30 19:24 55.62682 12.05625 10659 ft 267 kts 295°
2026-04-30 19:25 55.64842 11.95871 8628 ft 300 kts 295°
2026-04-30 19:26 55.66301 11.89038 7985 ft 292 kts 282°
2026-04-30 19:26 55.65279 11.82656 7964 ft 264 kts 224°
2026-04-30 19:26 55.63779 11.80972 7728 ft 257 kts 196°
2026-04-30 19:27 55.60235 11.79833 6791 ft 266 kts 185°
2026-04-30 19:27 55.56491 11.79018 5735 ft 277 kts 185°
2026-04-30 19:28 55.54568 11.78684 5206 ft 281 kts 179°
2026-04-30 19:28 55.51087 11.81338 4176 ft 279 kts 137°
2026-04-30 19:29 55.48426 11.85561 3977 ft 235 kts 135°
2026-04-30 19:29 55.47227 11.87502 3979 ft 229 kts 135°
2026-04-30 19:30 55.43872 11.92895 3982 ft 215 kts 135°
2026-04-30 19:30 55.41678 11.96418 3359 ft 220 kts 135°
2026-04-30 19:31 55.40125 12.00712 2978 ft 205 kts 86°
2026-04-30 19:31 55.40258 12.03203 2994 ft 204 kts 77°
2026-04-30 19:31 55.40790 12.08062 2975 ft 197 kts 75°
2026-04-30 19:32 55.41052 12.10368 2906 ft 186 kts 75°
2026-04-30 19:32 55.41296 12.12556 2774 ft 176 kts 75°
2026-04-30 19:32 55.41515 12.14592 2530 ft 172 kts 75°
2026-04-30 19:32 55.41750 12.16739 2489 ft 181 kts 75°
2026-04-30 19:33 55.41990 12.18933 2485 ft 183 kts 75°
2026-04-30 19:33 55.42230 12.21118 2478 ft 184 kts 75°
2026-04-30 19:33 55.42473 12.23319 2476 ft 183 kts 75°
2026-04-30 19:33 55.42715 12.25514 2472 ft 183 kts 75°
2026-04-30 19:34 55.42959 12.27739 2471 ft 184 kts 75°
2026-04-30 19:34 55.43201 12.29935 2473 ft 184 kts 75°
2026-04-30 19:34 55.43686 12.34337 2470 ft 183 kts 72°
2026-04-30 19:35 55.44172 12.36384 2471 ft 179 kts 55°
2026-04-30 19:35 55.44908 12.38104 2470 ft 177 kts 44°
2026-04-30 19:35 55.45781 12.39612 2471 ft 176 kts 38°
2026-04-30 19:35 55.46705 12.41007 2472 ft 175 kts 37°
2026-04-30 19:36 55.47637 12.42400 2472 ft 175 kts 37°
2026-04-30 19:36 55.48563 12.43809 2478 ft 175 kts 37°
2026-04-30 19:36 55.50388 12.46639 2346 ft 174 kts 38°
2026-04-30 19:37 55.51273 12.48021 2109 ft 167 kts 37°
2026-04-30 19:37 55.52118 12.49342 1902 ft 158 kts 37°
2026-04-30 19:37 55.52927 12.50603 1682 ft 154 kts 36°
2026-04-30 19:37 55.53731 12.51850 1485 ft 154 kts 37°
2026-04-30 19:38 55.54539 12.53102 1273 ft 153 kts 37°
2026-04-30 19:38 55.55329 12.54327 1068 ft 153 kts 37°
2026-04-30 19:38 55.56108 12.55536 848 ft 140 kts 37°
2026-04-30 19:38 55.56797 12.56611 641 ft 127 kts 38°
2026-04-30 19:39 55.57466 12.57646 531 ft 127 kts 38°
2026-04-30 19:39 55.58118 12.58668 344 ft 127 kts 38°
2026-04-30 19:39 55.58786 12.59689 179 ft 127 kts 40°
2026-04-30 19:39 55.59465 12.60707 52 ft 127 kts 40°
2026-04-30 19:40 55.60041 12.61598 19 ft 75 kts 40°
2026-04-30 19:40 55.60270 12.61960 20 ft 33 kts 40°
2026-04-30 19:40 55.60436 12.62206 21 ft 26 kts 33°
2026-04-30 19:40 55.60597 12.62329 21 ft 24 kts 12°
2026-04-30 19:41 55.60760 12.62391 22 ft 23 kts 19°
2026-04-30 19:41 55.60872 12.62522 22 ft 14 kts 38°
2026-04-30 19:41 55.60955 12.62637 23 ft 15 kts 37°
2026-04-30 19:41 55.60977 12.62672 23 ft 0 kts 43°
2026-04-30 19:42 55.60986 12.62685 23 ft 2 kts 43°
2026-04-30 19:42 55.61002 12.62713 23 ft 4 kts 42°
2026-04-30 19:42 55.61027 12.62753 23 ft 5 kts 42°
2026-04-30 19:42 55.61067 12.62827 23 ft 12 kts 44°
2026-04-30 19:43 55.61152 12.62973 24 ft 21 kts 42°
2026-04-30 19:43 55.61282 12.63175 23 ft 28 kts 39°
2026-04-30 19:43 55.61454 12.63425 24 ft 34 kts 40°
2026-04-30 19:44 55.61758 12.63896 23 ft 20 kts 40°
2026-04-30 19:44 55.61815 12.63979 23 ft 2 kts 39°
2026-04-30 19:44 55.61865 12.64053 23 ft 14 kts 37°
2026-04-30 19:44 55.61980 12.64164 22 ft 23 kts 24°
2026-04-30 19:45 55.62117 12.64275 22 ft 20 kts 24°
2026-04-30 19:45 55.62261 12.64386 22 ft 25 kts 19°
2026-04-30 19:45 55.62410 12.64457 21 ft 16 kts 13°
2026-04-30 19:45 55.62533 12.64359 21 ft 24 kts 312°
2026-04-30 19:46 55.62574 12.64262 21 ft 5 kts 300°
2026-04-30 19:46 55.62582 12.64240 21 ft 0 kts 302°
2026-04-30 19:46 55.62599 12.64209 21 ft 24 kts 325°
2026-04-30 19:47 55.62646 12.64251 21 ft 5 kts 81°
2026-04-30 19:47 55.62662 12.64292 21 ft 7 kts 32°
2026-04-30 19:47 55.62675 12.64403 21 ft 8 kts 103°
2026-04-30 19:47 55.62671 12.64437 21 ft 0 kts 100°
2026-04-30 19:48 55.62671 12.64439 21 ft 0 kts 100°